Regional Weather Roundup
Issued by NWS Cleveland, OH

Home | Current Version | Previous Version | Text Only | Print | Product List | Glossary Off
Versions: 1 2 3 4 5 6 7 8 9 10 11 12 13 14 15 16 17 18 19 20 21 22 23 24 25 26 27 28 29 30 31 32 33 34 35 36 37 38 39 40 41 42 43 44 45 46 47 48 49 50

000
ASUS41 KCLE 201010
RWRCLE
OHIO REGIONAL WEATHER ROUNDUP
NATIONAL WEATHER SERVICE CLEVELAND, OH
600 AM EDT WED SEP 20 2017

NOTE: "FAIR" INDICATES FEW OR NO CLOUDS BELOW 12,000 FEET WITH NO
SIGNIFICANT WEATHER AND/OR OBSTRUCTIONS TO VISIBILITY.

OHZ001>008-015>018-024>027-034-035-043-044-201100-
   NORTHWEST OHIO

CITY           SKY/WX    TMP DP  RH WIND       PRES   REMARKS
DEFIANCE       FOG       63  62  97 CALM      29.97R VSB 1/4
FINDLAY        CLOUDY    66  63  90 S3        29.97R
TOLEDO EXPRESS CLOUDY    64  32  30 SE3       29.96R FOG
TOLEDO EXEC    PTCLDY    65  63  93 S8        29.97R FOG
LIMA           CLOUDY    64  63  96 S5        29.98R
$$

OHZ009>014-019>023-028>033-038-089-201100-
   NORTHEAST OHIO

CITY           SKY/WX    TMP DP  RH WIND       PRES   REMARKS
CLE-HOPKINS    CLOUDY    69  65  86 CALM      29.99S
CLE-LAKEFRONT  CLOUDY    70  63  78 S5        29.96S
CUY CO. ARPT   NOT AVBL
LORAIN-ELYRIA  FOG       61  57  87 CALM      29.99R VSB 1/2
ASHTABULA      PTCLDY    63  63 100 E3        30.00R
AKRON-CANTON   CLOUDY    67  63  87 CALM      30.00R
WOOSTER        CLOUDY    62  61  96 CALM      30.00S FOG
MANSFIELD      CLOUDY    64  64 100 S3        30.00R
YOUNGSTOWN     CLOUDY    66  65  96 CALM      30.00R
$$

OHZ042-051>053-060>062-070>072-077>081-201100-
  SOUTHWEST OHIO

CITY           SKY/WX    TMP DP  RH WIND       PRES   REMARKS
CINC-COVINGTON PTCLDY    64  64 100 CALM      29.98S FOG
CINC-LUNKEN    FOG       63  63 100 CALM      29.99R VSB 1/4
HAMILTON       FOG       60  60 100 CALM      29.99S VSB 1/2
DAYTON         MOCLDY    65  64  97 S7        29.99R FOG
WRIGHT-PAT AFB PTCLDY    61  61 100 CALM      29.98R
DAYTON GENERAL FOG       63  63 100 S5        29.98R VSB 1
WILMINGTON     FOG       61  61 100 CALM      29.99R VSB 1/4
$$

OHZ036-037-039>041-045>050-054>059-063>069-073>076-082>088-201100-
  CENTRAL AND SOUTHEAST OHIO

CITY           SKY/WX    TMP DP  RH WIND       PRES   REMARKS
COLUMBUS       CLOUDY    70  67  90 CALM      29.98R
OSU AIRPORT    CLOUDY    69  68  96 CALM      29.98S
BOLTON FIELD   CLOUDY    66  66 100 SW5       29.99S FOG
RICKENBACK AFB CLOUDY    66  66 100 CALM      29.98S
NEWARK         CLOUDY    66  64  93 CALM      29.99R FOG
MARION         CLOUDY    65  63  93 CALM      29.99S FOG
LANCASTER      CLOUDY    65  64  97 CALM      30.00R
ZANESVILLE     CLOUDY    64  62  93 SW3       29.99S
NEW PHILLY     NOT AVBL
$$




USA.gov is the U.S. government's official web portal to all federal, state and local government web resources and services.